| time (UTC) | temp C | wind direction | speed KPH | gust KPH | rain 1hr cm | rain 24hr cm | rain mn cm | humidity % | barometer mb |
| 20260504081508 | 10 | 238 | 0.0 | 0.0 | 0.00 | 0.00 | 0.00 | 61 | 1016.8 |
| 20260504081008 | 10 | 238 | 0.0 | 0.0 | 0.00 | 0.00 | 0.00 | 60 | 1016.9 |
| 20260504080507 | 9 | 238 | 0.0 | 0.0 | 0.00 | 0.00 | 0.00 | 60 | 1016.9 |
| 20260504050507 | 8 | 292 | 0.0 | 0.0 | 0.00 | 0.00 | 0.00 | 67 | 1017.5 |
| 20260504050007 | 8 | 295 | 0.0 | 0.0 | 0.00 | 0.00 | 0.00 | 68 | 1017.4 |
| 20260504045507 | 8 | 352 | 0.0 | 0.0 | 0.00 | 0.00 | 0.00 | 70 | 1017.3 |
| 20260504045007 | 8 | 352 | 0.0 | 0.0 | 0.00 | 0.00 | 0.00 | 70 | 1017.2 |
| 20260504044507 | 8 | 352 | 0.0 | 0.0 | 0.00 | 0.00 | 0.00 | 69 | 1017.2 |
| 20260504044009 | 8 | 352 | 0.0 | 0.0 | 0.00 | 0.00 | 0.00 | 69 | 1017.2 |
| 20260504043507 | 8 | 352 | 0.0 | 0.0 | 0.00 | 0.00 | 0.00 | 68 | 1017.0 |
| 20260504043007 | 8 | 29 | 0.0 | 0.0 | 0.00 | 0.00 | 0.00 | 67 | 1016.8 |
| 20260504042007 | 8 | 354 | 1.6 | 3.2 | 0.00 | 0.00 | 0.00 | 66 | 1017.0 |
| 20260504041508 | 8 | 265 | 0.0 | 3.2 | 0.00 | 0.00 | 0.00 | 62 | 1016.9 |
| 20260504041007 | 7 | 248 | 0.0 | 1.6 | 0.00 | 0.00 | 0.00 | 68 | 1017.0 |
| 20260504040507 | 7 | 248 | 0.0 | 1.6 | 0.00 | 0.00 | 0.00 | 69 | 1017.0 |
| 20260504040006 | 7 | 244 | 0.0 | 3.2 | 0.00 | 0.00 | 0.00 | 67 | 1016.9 |
| 20260504035507 | 7 | 257 | 1.6 | 3.2 | 0.00 | 0.00 | 0.00 | 64 | 1017.1 |
| 20260504034007 | 7 | 192 | 0.0 | 1.6 | 0.00 | 0.00 | 0.00 | 66 | 1017.1 |
| 20260504033007 | 7 | 215 | 0.0 | 0.0 | 0.00 | 0.00 | 0.00 | 63 | 1017.1 |
| 20260504032507 | 7 | 215 | 0.0 | 1.6 | 0.00 | 0.00 | 0.00 | 63 | 1017.1 |
| 20260504032007 | 7 | 215 | 0.0 | 1.6 | 0.00 | 0.00 | 0.00 | 63 | 1017.1 |
| 20260504031507 | 7 | 215 | 0.0 | 1.6 | 0.00 | 0.00 | 0.00 | 62 | 1017.2 |
| 20260504031007 | 7 | 215 | 0.0 | 0.0 | 0.00 | 0.00 | 0.00 | 62 | 1017.2 |
| 20260504030007 | 8 | 214 | 0.0 | 1.6 | 0.00 | 0.00 | 0.00 | 63 | 1017.2 |
| 20260504025507 | 8 | 214 | 0.0 | 0.0 | 0.00 | 0.00 | 0.00 | 60 | 1017.2 |
| 20260504025007 | 8 | 214 | 0.0 | 1.6 | 0.00 | 0.00 | 0.00 | 60 | 1017.2 |
| 20260504024507 | 8 | 214 | 0.0 | 1.6 | 0.00 | 0.00 | 0.00 | 59 | 1017.2 |
| 20260504024007 | 8 | 261 | 0.0 | 1.6 | 0.00 | 0.00 | 0.00 | 57 | 1017.3 |
| 20260504023507 | 9 | 261 | 0.0 | 1.6 | 0.00 | 0.00 | 0.00 | 55 | 1017.3 |
| 20260504023007 | 9 | 262 | 0.0 | 3.2 | 0.00 | 0.00 | 0.00 | 54 | 1017.3 |
| 20260504022506 | 9 | 267 | 1.6 | 4.8 | 0.00 | 0.00 | 0.00 | 55 | 1017.2 |
| 20260504022008 | 9 | 233 | 0.0 | 4.8 | 0.00 | 0.00 | 0.00 | 55 | 1017.1 |
| 20260504021507 | 9 | 220 | 1.6 | 4.8 | 0.00 | 0.00 | 0.00 | 54 | 1017.0 |
| 20260504021007 | 9 | 229 | 0.0 | 3.2 | 0.00 | 0.00 | 0.00 | 54 | 1017.0 |
| 20260504020507 | 9 | 252 | 1.6 | 3.2 | 0.00 | 0.00 | 0.00 | 53 | 1016.9 |
| 20260504020007 | 10 | 177 | 1.6 | 4.8 | 0.00 | 0.00 | 0.00 | 53 | 1016.9 |
| 20260504015507 | 10 | 237 | 0.0 | 4.8 | 0.00 | 0.00 | 0.00 | 52 | 1016.8 |
| 20260504015006 | 10 | 258 | 0.0 | 4.8 | 0.00 | 0.00 | 0.00 | 53 | 1016.8 |
| 20260504014507 | 10 | 255 | 0.0 | 4.8 | 0.00 | 0.00 | 0.00 | 54 | 1016.8 |
| 20260504014007 | 10 | 266 | 0.0 | 4.8 | 0.00 | 0.00 | 0.00 | 55 | 1016.6 |
| 20260504013507 | 10 | 62 | 0.0 | 1.6 | 0.00 | 0.00 | 0.00 | 54 | 1016.6 |
| 20260504013006 | 10 | 251 | 0.0 | 1.6 | 0.00 | 0.00 | 0.00 | 54 | 1016.6 |
| 20260504012507 | 10 | 251 | 0.0 | 1.6 | 0.00 | 0.00 | 0.00 | 54 | 1016.6 |
| 20260504012007 | 10 | 252 | 0.0 | 1.6 | 0.00 | 0.00 | 0.00 | 52 | 1016.5 |
| 20260504011506 | 10 | 247 | 0.0 | 3.2 | 0.00 | 0.00 | 0.00 | 52 | 1016.5 |
| 20260504011007 | 10 | 236 | 0.0 | 1.6 | 0.00 | 0.00 | 0.00 | 52 | 1016.4 |
| 20260504010506 | 11 | 277 | 0.0 | 3.2 | 0.00 | 0.00 | 0.00 | 51 | 1016.4 |
| 20260504005507 | 11 | 260 | 0.0 | 1.6 | 0.00 | 0.00 | 0.00 | 50 | 1016.3 |
| 20260504005006 | 11 | 208 | 0.0 | 1.6 | 0.00 | 0.00 | 0.00 | 49 | 1016.3 |
| 20260504004507 | 11 | 226 | 0.0 | 1.6 | 0.00 | 0.00 | 0.00 | 50 | 1016.2 |
| 20260504003506 | 12 | 217 | 0.0 | 0.0 | 0.00 | 0.00 | 0.00 | 46 | 1016.0 |
| 20260504003007 | 12 | 217 | 0.0 | 1.6 | 0.00 | 0.00 | 0.00 | 47 | 1016.0 |
| 20260504002506 | 13 | 217 | 0.0 | 0.0 | 0.00 | 0.00 | 0.00 | 45 | 1015.9 |
| 20260504002006 | 13 | 217 | 0.0 | 0.0 | 0.00 | 0.00 | 0.00 | 43 | 1016.0 |
| 20260504001507 | 14 | 224 | 0.0 | 1.6 | 0.00 | 0.00 | 0.00 | 42 | 1016.0 |
| 20260504001006 | 15 | 224 | 0.0 | 0.0 | 0.00 | 0.00 | 0.00 | 39 | 1016.0 |
| 20260504000506 | 15 | 224 | 0.0 | 0.0 | 0.00 | 0.00 | 0.00 | 37 | 1016.0 |
| 20260504000007 | 16 | 224 | 0.0 | 0.0 | 0.00 | 0.00 | 0.00 | 38 | 1016.0 |
| 20260503235506 | 16 | 224 | 0.0 | 0.0 | 0.00 | 0.00 | 0.00 | 36 | 1015.9 |
| 20260503233506 | 17 | 224 | 0.0 | 1.6 | 0.00 | 0.00 | 0.00 | 30 | 1015.8 |
| 20260503232007 | 18 | 101 | 0.0 | 0.0 | 0.00 | 0.00 | 0.00 | 30 | 1015.8 |
| 20260503231507 | 18 | 244 | 1.6 | 4.8 | 0.00 | 0.00 | 0.00 | 26 | 1015.8 |
| 20260503231006 | 19 | 276 | 1.6 | 1.6 | 0.00 | 0.00 | 0.00 | 26 | 1015.7 |
| 20260503230507 | 18 | 283 | 0.0 | 3.2 | 0.00 | 0.00 | 0.00 | 29 | 1015.6 |
| 20260503230006 | 18 | 230 | 1.6 | 3.2 | 0.00 | 0.00 | 0.00 | 28 | 1015.7 |
| 20260503225506 | 18 | 260 | 1.6 | 8.0 | 0.00 | 0.00 | 0.00 | 27 | 1015.7 |
| 20260503225008 | 18 | 137 | 3.2 | 8.0 | 0.00 | 0.00 | 0.00 | 26 | 1015.8 |
| 20260503224506 | 18 | 285 | 1.6 | 8.0 | 0.00 | 0.00 | 0.00 | 27 | 1015.8 |
| 20260503224007 | 18 | 274 | 3.2 | 8.0 | 0.00 | 0.00 | 0.00 | 26 | 1015.8 |
| 20260503223506 | 18 | 236 | 3.2 | 8.0 | 0.00 | 0.00 | 0.00 | 27 | 1015.8 |
| 20260503223007 | 18 | 249 | 3.2 | 8.0 | 0.00 | 0.00 | 0.00 | 26 | 1015.9 |
| 20260503222006 | 18 | 227 | 1.6 | 4.8 | 0.00 | 0.00 | 0.00 | 26 | 1015.9 |
| 20260503221506 | 18 | 208 | 1.6 | 4.8 | 0.00 | 0.00 | 0.00 | 26 | 1016.0 |
| 20260503221006 | 18 | 252 | 1.6 | 8.0 | 0.00 | 0.00 | 0.00 | 26 | 1016.1 |
| 20260503220006 | 18 | 309 | 4.8 | 9.7 | 0.00 | 0.00 | 0.00 | 27 | 1016.1 |
| 20260503215006 | 18 | 258 | 1.6 | 9.7 | 0.00 | 0.00 | 0.00 | 27 | 1016.0 |
| 20260503214506 | 18 | 228 | 3.2 | 4.8 | 0.00 | 0.00 | 0.00 | 26 | 1016.1 |
| 20260503214007 | 18 | 272 | 3.2 | 8.0 | 0.00 | 0.00 | 0.00 | 26 | 1016.2 |
| 20260503213506 | 18 | 218 | 1.6 | 14.5 | 0.00 | 0.00 | 0.00 | 28 | 1016.3 |
| 20260503213006 | 18 | 249 | 3.2 | 11.3 | 0.00 | 0.00 | 0.00 | 26 | 1016.4 |
| 20260503212006 | 18 | 246 | 3.2 | 9.7 | 0.00 | 0.00 | 0.00 | 26 | 1016.3 |
| 20260503211506 | 18 | 330 | 1.6 | 4.8 | 0.00 | 0.00 | 0.00 | 26 | 1016.3 |
| 20260503211006 | 18 | 185 | 0.0 | 4.8 | 0.00 | 0.00 | 0.00 | 27 | 1016.3 |
| 20260503205507 | 17 | 284 | 1.6 | 4.8 | 0.00 | 0.00 | 0.00 | 26 | 1016.5 |
| 20260503205006 | 18 | 251 | 4.8 | 16.1 | 0.00 | 0.00 | 0.00 | 25 | 1016.5 |
| 20260503204506 | 18 | 268 | 1.6 | 9.7 | 0.00 | 0.00 | 0.00 | 28 | 1016.5 |
| 20260503204006 | 18 | 41 | 3.2 | 11.3 | 0.00 | 0.00 | 0.00 | 26 | 1016.6 |
| 20260503203506 | 17 | 246 | 3.2 | 8.0 | 0.00 | 0.00 | 0.00 | 27 | 1016.7 |
| 20260503203006 | 17 | 266 | 4.8 | 16.1 | 0.00 | 0.00 | 0.00 | 25 | 1016.7 |
| 20260503202006 | 18 | 39 | 1.6 | 4.8 | 0.00 | 0.00 | 0.00 | 31 | 1016.7 |
| 20260503201505 | 17 | 222 | 4.8 | 9.7 | 0.00 | 0.00 | 0.00 | 29 | 1016.8 |
| 20260503201006 | 17 | 222 | 3.2 | 19.3 | 0.00 | 0.00 | 0.00 | 28 | 1016.9 |
| 20260503200506 | 17 | 250 | 1.6 | 4.8 | 0.00 | 0.00 | 0.00 | 28 | 1016.9 |
| 20260503200006 | 17 | 229 | 1.6 | 8.0 | 0.00 | 0.00 | 0.00 | 26 | 1017.1 |
| 20260503195505 | 17 | 235 | 4.8 | 9.7 | 0.00 | 0.00 | 0.00 | 28 | 1017.3 |
| 20260503195006 | 17 | 249 | 1.6 | 9.7 | 0.00 | 0.00 | 0.00 | 29 | 1017.3 |
| 20260503194506 | 17 | 313 | 1.6 | 8.0 | 0.00 | 0.00 | 0.00 | 31 | 1017.4 |
| 20260503194005 | 16 | 220 | 3.2 | 8.0 | 0.00 | 0.00 | 0.00 | 31 | 1017.5 |
| 20260503193506 | 17 | 249 | 4.8 | 20.9 | 0.00 | 0.00 | 0.00 | 28 | 1017.6 |
| 20260503193006 | 17 | 295 | 1.6 | 8.0 | 0.00 | 0.00 | 0.00 | 29 | 1017.5 |
| 20260503192506 | 17 | 41 | 1.6 | 4.8 | 0.00 | 0.00 | 0.00 | 29 | 1017.6 |
| 20260503192005 | 17 | 127 | 1.6 | 12.9 | 0.00 | 0.00 | 0.00 | 29 | 1017.8 |
| 20260503191006 | 17 | 236 | 3.2 | 8.0 | 0.00 | 0.00 | 0.00 | 30 | 1017.8 |
| 20260503190505 | 16 | 60 | 1.6 | 12.9 | 0.00 | 0.00 | 0.00 | 32 | 1017.8 |
| 20260503190007 | 16 | 227 | 3.2 | 9.7 | 0.00 | 0.00 | 0.00 | 31 | 1018.1 |
| 20260503185506 | 16 | 245 | 4.8 | 9.7 | 0.00 | 0.00 | 0.00 | 30 | 1018.1 |
| 20260503185005 | 16 | 273 | 4.8 | 8.0 | 0.00 | 0.00 | 0.00 | 31 | 1018.2 |
| 20260503184506 | 16 | 90 | 3.2 | 4.8 | 0.00 | 0.00 | 0.00 | 30 | 1018.2 |
| 20260503184005 | 16 | 176 | 3.2 | 8.0 | 0.00 | 0.00 | 0.00 | 30 | 1018.4 |
| 20260503183505 | 16 | 244 | 6.4 | 16.1 | 0.00 | 0.00 | 0.00 | 33 | 1018.5 |
| 20260503183007 | 17 | 251 | 3.2 | 9.7 | 0.00 | 0.00 | 0.00 | 30 | 1018.6 |
| 20260503182506 | 17 | 304 | 3.2 | 4.8 | 0.00 | 0.00 | 0.00 | 33 | 1018.6 |
| 20260503182006 | 16 | 73 | 1.6 | 4.8 | 0.00 | 0.00 | 0.00 | 31 | 1018.6 |
| 20260503181506 | 16 | 270 | 3.2 | 4.8 | 0.00 | 0.00 | 0.00 | 31 | 1018.7 |
| 20260503181006 | 16 | 234 | 4.8 | 14.5 | 0.00 | 0.00 | 0.00 | 30 | 1018.8 |
| 20260503180506 | 15 | 175 | 1.6 | 8.0 | 0.00 | 0.00 | 0.00 | 32 | 1018.8 |
| 20260503180005 | 15 | 216 | 4.8 | 12.9 | 0.00 | 0.00 | 0.00 | 31 | 1018.8 |
| 20260503175006 | 15 | 309 | 1.6 | 4.8 | 0.00 | 0.00 | 0.00 | 34 | 1019.0 |
| 20260503174505 | 14 | 288 | 1.6 | 4.8 | 0.00 | 0.00 | 0.00 | 37 | 1019.0 |
| 20260503174005 | 14 | 243 | 4.8 | 11.3 | 0.00 | 0.00 | 0.00 | 33 | 1019.1 |
| 20260503173506 | 14 | 290 | 3.2 | 11.3 | 0.00 | 0.00 | 0.00 | 33 | 1019.2 |
| 20260503173006 | 14 | 235 | 3.2 | 4.8 | 0.00 | 0.00 | 0.00 | 37 | 1019.2 |
| 20260503172505 | 14 | 136 | 4.8 | 14.5 | 0.00 | 0.00 | 0.00 | 33 | 1019.3 |
| 20260503172005 | 14 | 255 | 3.2 | 11.3 | 0.00 | 0.00 | 0.00 | 34 | 1019.4 |
| 20260503171506 | 15 | 228 | 3.2 | 9.7 | 0.00 | 0.00 | 0.00 | 34 | 1019.4 |
| 20260503171005 | 15 | 243 | 3.2 | 4.8 | 0.00 | 0.00 | 0.00 | 34 | 1019.6 |
| 20260503170505 | 15 | 3 | 0.0 | 3.2 | 0.00 | 0.00 | 0.00 | 37 | 1019.6 |
| 20260503151005 | 10 | 29 | 1.6 | 9.7 | 0.00 | 0.00 | 0.00 | 43 | 1020.5 |
| 20260503150505 | 9 | 276 | 1.6 | 4.8 | 0.00 | 0.00 | 0.00 | 44 | 1020.6 |
| 20260503130505 | 6 | 250 | 3.2 | 12.9 | 0.00 | 0.00 | 0.00 | 55 | 1020.5 |